Tracking 18852 objects as of 24-Nov-2017
HD Live streaming from Space Station
objects crossing your sky now

FENGYUN 1C DEB

Track FENGYUN 1C DEB now!
10-day predictions


NORAD ID: 31952
Int'l Code: 1999-025CND
Perigee: 654.7 km
Apogee: 841.5 km
Inclination: 98.9 °
Period: 99.6 minutes
Semi major axis: 7119 km
RCS: 0.0137 m2 (small)
Launch date: May 10, 1999
Source: People's Republic of China (PRC)
Launch site: Taiyaun Space Center, China (TSC)

Note: This is SATELLITE DEBRIS
aabbcc
Your satellite tracking list
Your tracking list is empty




NASA's NSSDC Master Catalog

Two Line Element Set (TLE):
1 31952U 99025CND 17328.20900594 +.00000457 +00000-0 +13081-3 0  9997
2 31952 098.9480 224.0290 0131239 079.5219 282.0728 14.45326185546767
Source of the keplerian elements: AFSPC